Content
SEND FEEDBACK

Daily
Averages
Monthly
Summary
United States of America

MARYSVILLE, MICHIGAN


Home > North America > United States > Michigan
Elevation: 578 feet     Latitude: 42 58N     Longitude: 082 25W

WEATHER
 
SELECT A DAY
Number of Records: 192,839;   Date Range: 1/1/95 - 10/22/14
 
SHARE

PRINT THIS DATA

[ ← Previous Day ]
WEATHER ALMANAC - JANUARY 23, 2013
[ Next Day → ]
[ °C ]   °F
Weather ElementAverageHighLow
Temperature11.1 °F15.8 °F (2:00 pm)-13 °F (7:00 am)
Dewpoint4.5 °F12.2 °F (7:00 pm)-24 °F (7:00 am)
Humidity74.8 %93 % (7:00 pm)23 % (1:00 pm)
Barometer30.13 in30.29 in (3:00 am)29.67 in (1:00 pm)
Wind Speed8.2 mph12.7 mph (3:47 pm)
Wind Gust17.3 mph (3:00 am)
Weather ElementAverage
Visibility6.6 mi
Wind DirectionWSW (242.5 °)

Weather ElementTotal
Precipitation---
Heating Degree Days63.6 (Base 65)
Averaged from 53 records on January 23, 2013
WEATHER CONDITIONS BREAKOUT
WIND DIRECTION BREAKOUT
WEATHER BY HOUR - JANUARY 23, 2013
[ °C ]   °F
Local TimeTemperatureDewpointHumidityBarometerVisibilityWind DirectionWind SpeedGust SpeedPrecipitationEventsConditions
1:00 AM-9.0 °F-16.0 °F57 %29.78 inWest (270°)2.3 mph
1:00 AM5.0 °F-2.2 °F72 %30.28 in9.0 miWest (270°)9.2 mphPartly Cloudy
2:00 AM3.2 °F-2.2 °F78 %30.28 in9.0 miWest (280°)10.4 mphPartly Cloudy
3:00 AM3.2 °F-4.0 °F72 %30.29 in9.0 miWest (280°)10.4 mph17.3 mphClear
4:00 AM3.2 °F-4.0 °F72 %30.28 in9.0 miWest (270°)9.2 mphClear
5:00 AM3.2 °F-4.0 °F72 %30.28 in9.0 miWest (270°)9.2 mphClear
6:00 AM3.2 °F-4.0 °F72 %30.27 in9.0 miWest (270°)10.4 mphClear
7:00 AM-13.0 °F-24.0 °F40 %29.77 inWest (270°)8.1 mph
7:00 AM3.2 °F-4.0 °F72 %30.28 in9.0 miWest (260°)10.4 mphClear
8:00 AM3.2 °F-4.0 °F72 %30.27 in9.0 miWest (260°)8.1 mphClear
9:00 AM6.8 °F-2.2 °F67 %30.27 in9.0 miWSW (240°)8.1 mphPartly Cloudy
10:00 AM8.6 °F-2.2 °F62 %30.27 in9.0 miWSW (240°)10.4 mphMostly Cloudy
11:00 AM12.2 °F-4.0 °F48 %30.26 in9.0 miWSW (240°)11.5 mphClear
12:00 PM14.0 °F-2.2 °F49 %30.23 in9.0 miSW (230°)9.2 mphOvercast
1:00 PM-2.0 °F-21.0 °F23 %29.67 inWest (260°)6.9 mph
1:00 PM14.0 °F-2.2 °F49 %30.20 in9.0 miSSW (210°)9.2 mphMostly Cloudy
2:00 PM15.8 °F-0.4 °F49 %30.16 in9.0 miSW (220°)8.1 mphMostly Cloudy
3:00 PM15.8 °F1.4 °F53 %30.14 in9.0 miSW (220°)11.5 mphOvercast
3:34 PM15.8 °F1.4 °F53 %30.14 in9.0 miWSW (250°)10.4 mphSnowLight Snow
3:47 PM15.8 °F6.8 °F68 %30.14 in5.0 miSSW (210°)12.7 mphSnowLight Snow
4:00 PM15.8 °F6.8 °F68 %30.14 in5.0 miSSW (210°)10.4 mphSnowLight Snow
4:01 PM15.8 °F6.8 °F68 %30.14 in6.0 miSW (220°)10.4 mphSnowLight Snow
4:44 PM15.8 °F8.6 °F73 %30.13 in5.0 miSSW (200°)11.5 mphSnowLight Snow
5:00 PM15.8 °F8.6 °F73 %30.12 in4.0 miSW (220°)8.1 mphSnowLight Snow
5:15 PM14.0 °F8.6 °F79 %30.13 in7.0 miSSW (210°)9.2 mphSnowLight Snow
5:20 PM14.0 °F8.6 °F79 %30.12 in9.0 miSW (220°)8.1 mphMostly Cloudy
5:25 PM14.0 °F10.4 °F86 %30.12 in9.0 miSSW (200°)6.9 mphSnowLight Snow
6:00 PM14.0 °F10.4 °F86 %30.12 in9.0 miSouth (190°)6.9 mphSnowLight Snow
6:09 PM14.0 °F10.4 °F86 %30.12 in5.0 miSouth (190°)4.6 mphSnowLight Snow
7:00 PM-7.0 °F-21.0 °F33 %29.68 inWest (270°)9.2 mph
7:00 PM14.0 °F12.2 °F93 %30.12 in3.0 miSouth (190°)5.8 mphSnowLight Snow
7:15 PM14.0 °F12.2 °F93 %30.12 in4.0 miSouth (190°)5.8 mphSnowLight Snow
7:32 PM14.0 °F12.2 °F93 %30.12 in4.0 miSouth (190°)5.8 mphSnowLight Snow
7:51 PM14.0 °F12.2 °F93 %30.11 in5.0 miSouth (180°)4.6 mphSnowLight Snow
7:53 PM14.0 °F12.2 °F93 %30.11 in6.0 miSouth (190°)5.8 mphSnowLight Snow
7:54 PM14.0 °F12.2 °F93 %30.11 in8.0 miSouth (190°)5.8 mphSnowLight Snow
8:00 PM14.0 °F12.2 °F93 %30.11 in9.0 miSouth (190°)5.8 mphSnowLight Snow
8:53 PM15.8 °F12.2 °F86 %30.11 in5.0 miSW (230°)5.8 mphSnowLight Snow
9:00 PM15.8 °F12.2 °F86 %30.11 in4.0 miWSW (240°)6.9 mphSnowLight Snow
9:12 PM15.8 °F12.2 °F86 %30.11 in6.0 miWSW (240°)5.8 mphSnowLight Snow
9:25 PM15.8 °F10.4 °F79 %30.11 in9.0 miWest (260°)9.2 mphOvercast
9:42 PM15.8 °F12.2 °F86 %30.12 in8.0 miWest (260°)6.9 mphSnowLight Snow
10:00 PM15.8 °F12.2 °F86 %30.12 in9.0 miWest (260°)6.9 mphSnowLight Snow
10:22 PM15.8 °F12.2 °F86 %30.12 in5.0 miWest (280°)6.9 mphSnowLight Snow
10:47 PM15.8 °F12.2 °F86 %30.12 in2.5 miWNW (290°)9.2 mphSnowLight Snow
10:53 PM15.8 °F12.2 °F86 %30.12 in1.8 miWNW (300°)10.4 mphSnowLight Snow
10:55 PM15.8 °F12.2 °F86 %30.12 in1.8 miWNW (300°)9.2 mphSnowLight Snow
11:00 PM15.8 °F12.2 °F86 %30.12 in1.8 miWNW (300°)8.1 mphSnowLight Snow
11:27 PM14.0 °F12.2 °F93 %30.12 in2.0 miWNW (290°)6.9 mphSnowLight Snow
11:33 PM14.0 °F12.2 °F93 %30.12 in2.2 miWNW (290°)8.1 mphSnowLight Snow
11:37 PM14.0 °F12.2 °F93 %30.12 in3.0 miWest (270°)5.8 mphSnowLight Snow
11:47 PM14.0 °F10.4 °F86 %30.12 in6.0 miWest (280°)8.1 mphSnowLight Snow
11:53 PM14.0 °F8.6 °F79 %30.12 in9.0 miWNW (290°)8.1 mphOvercast
Hourly data recorded from CYZR, located miles away from Marysville, Michigan







STORIES FROM OUR PARTNERS